LPPR

Porto/Francisco de Sá Carneiro Airport

Airport
ICAO code
LPPR
IATA Code
OPO
Summary
ICAO Region
EUR
ICAO Territory
Location

Pedras Rubras, Porto

Serving
Porto
Elevation
228 ft
Coordinates
41° 14' 32" N , 8° 40' 43" W
KCC
Metar
LPPR 142300Z VRB02KT CAVOK 14/13 Q1023

Francisco Sá Carneiro Airport or simply Porto Airport is an international airport near Porto, Portugal. It is located 11 km northwest of the Clérigos Tower in the centre of Porto, in the municipalities of Maia, Matosinhos and Vila do Conde.

Climatology

Dry-summer subtropical ”Mediterranean" climate (Köppen climate classification Csa)

Runways

Designator Length Width Surface Rops
17/35 3480 45 ASP Yes/Yes

SKYbrary Partners:

Safety knowledge contributed by: